Flag for U.S.A. Weather past 2 weeks in Victorville, California, U.S.A.

Now
55 °F

Clear.


Feels Like: 54 °F
Forecast: 50 / 83 °F
Wind: 7 mph from Southwest

Location: George Air Force Base / Victorvi


UV Index: 7 (High)

Visibility: 10 mi


Pressure: 30.06 "Hg

Humidity: 51%

Dew point: 37 °F

Location of VictorvilleLocation

Historic Weather in Victorville

°F

Victorville temperature yesterday

Maximum temperature yesterday: 82 °F (at 4:35 PM)
Minimum temperature yesterday: 50 °F (at 4:35 AM)
Average temperature yesterday: 66 °F

Past Weeks' High & Low Weather Summary

 TemperatureHumidityPressure
High88 °F (Apr 9, 2:15 PM)87% (Apr 5, 4:55 AM)30.26 "Hg (Apr 5, 4:55 AM)
Low39 °F (Apr 5, 3:55 AM)3% (Apr 9, 2:15 PM)29.77 "Hg (Apr 16, 4:35 PM)
Average65 °F29%29.99 "Hg
* Reported Apr 5 2:15 AM — Apr 20 2:55 AM, Victorville, Weather by CustomWeather, © 2014

Note: Actual official high and low records may vary slightly from our data, if they occured in-between our weather recording intervals... More about our weather records

Advertising

Historic Weather Conditions — Data for Previous 24 hours

 ConditionsComfort  
Time TempWeatherWind HumidityBarometerVisibility
2:55 AM
Apr 20
57 °FClear.8 mph51%30.07 "Hg10 mi
2:35 AM59 °FClear.6 mph48%30.07 "Hg10 mi
2:15 AM57 °FClear.5 mph51%30.07 "Hg10 mi
1:55 AM57 °FClear.7 mph51%30.08 "Hg10 mi
1:35 AM59 °FClear.7 mph48%30.08 "Hg10 mi
1:15 AM61 °FClear.7 mph45%30.08 "Hg10 mi
12:55 AM61 °FClear.6 mph45%30.08 "Hg10 mi
12:35 AM59 °FClear.6 mph45%30.08 "Hg7 mi
12:15 AM61 °FClear.6 mph39%30.08 "Hg10 mi
11:55 PM
Apr 19
61 °FClear.5 mph39%30.08 "Hg10 mi
11:15 PM63 °FClear.5 mph42%30.08 "Hg10 mi
10:55 PM64 °FClear.6 mph46%30.07 "Hg10 mi
10:35 PM64 °FClear.7 mph46%30.06 "Hg10 mi
10:15 PM64 °FClear.8 mph49%30.06 "Hg10 mi
9:55 PM66 °FClear.9 mph46%30.06 "Hg10 mi
9:35 PM66 °FClear.12 mph46%30.05 "Hg10 mi
9:15 PM66 °FClear.14 mph46%30.04 "Hg10 mi
8:55 PM68 °FClear.14 mph43%30.03 "Hg10 mi
8:35 PM68 °FClear.17 mph40%30.02 "Hg10 mi
8:15 PM70 °FSunny.18 mph38%30.01 "Hg10 mi
7:55 PM70 °FSunny.17 mph35%30.00 "Hg10 mi
7:35 PM72 °FSunny.20 mph36%29.99 "Hg10 mi
7:15 PM75 °FSunny.16 mph25%29.99 "Hg10 mi
6:55 PM75 °FSunny.15 mph25%29.98 "Hg10 mi
6:35 PM79 °FSunny.15 mph23%29.97 "Hg10 mi
6:15 PM79 °FScattered clouds.18 mph24%29.97 "Hg10 mi
5:55 PM81 °FPartly sunny.13 mph21%29.97 "Hg10 mi
5:15 PM81 °FPartly sunny.9 mph16%29.96 "Hg10 mi
4:55 PM79 °FScattered clouds.No wind18%29.97 "Hg10 mi
4:35 PM82 °FScattered clouds.10 mph15%29.96 "Hg10 mi
4:15 PM81 °FScattered clouds.5 mph16%29.97 "Hg10 mi
3:55 PM81 °FScattered clouds.8 mph16%29.97 "Hg10 mi
3:35 PM81 °FScattered clouds.3 mph16%29.97 "Hg10 mi
3:15 PM79 °FScattered clouds.3 mph17%29.97 "Hg10 mi
2:55 PM79 °FScattered clouds.5 mph18%29.98 "Hg10 mi
2:15 PM79 °FScattered clouds.3 mph20%29.99 "Hg10 mi
1:55 PM79 °FScattered clouds.6 mph21%30.00 "Hg10 mi
1:35 PM79 °FScattered clouds.8 mph21%30.00 "Hg10 mi
1:15 PM77 °FScattered clouds.6 mph22%30.00 "Hg10 mi
12:55 PM77 °FScattered clouds.8 mph22%30.01 "Hg10 mi
12:35 PM75 °FScattered clouds.7 mph24%30.01 "Hg10 mi
12:15 PM75 °FScattered clouds.7 mph24%30.02 "Hg10 mi
11:55 AM73 °FScattered clouds.7 mph27%30.02 "Hg10 mi
11:35 AM73 °FScattered clouds.3 mph27%30.03 "Hg10 mi
11:15 AM72 °FScattered clouds.3 mph27%30.03 "Hg10 mi
10:55 AM72 °FScattered clouds.3 mph27%30.03 "Hg10 mi
10:35 AM70 °FScattered clouds.3 mph29%30.02 "Hg10 mi
10:15 AM70 °FSunny.3 mph31%30.02 "Hg10 mi
9:55 AM68 °FSunny.No wind35%30.02 "Hg10 mi
9:35 AM66 °FSunny.3 mph35%30.02 "Hg10 mi
9:15 AM64 °FSunny.No wind37%30.01 "Hg10 mi
8:55 AM63 °FSunny.No wind39%30.01 "Hg10 mi
8:35 AM63 °FSunny.3 mph45%30.01 "Hg10 mi
8:15 AM61 °FScattered clouds.3 mph52%30.01 "Hg10 mi
7:55 AM57 °FSunny.5 mph59%30.00 "Hg10 mi
7:35 AM55 °FSunny.7 mph63%29.99 "Hg10 mi
7:15 AM54 °FSunny.6 mph67%29.99 "Hg10 mi
6:55 AM54 °FClear.6 mph67%29.98 "Hg10 mi
6:35 AM52 °FCool.8 mph72%29.97 "Hg10 mi
6:15 AM52 °FCool.7 mph72%29.96 "Hg10 mi
5:55 AM52 °FCool.6 mph72%29.95 "Hg10 mi
5:35 AM52 °FCool.7 mph72%29.95 "Hg10 mi
5:15 AM52 °FCool.5 mph72%29.94 "Hg10 mi
4:55 AM50 °FCool.6 mph76%29.94 "Hg10 mi
4:35 AM50 °FCool.5 mph82%29.95 "Hg10 mi
4:15 AM52 °FCool.No wind77%29.95 "Hg10 mi
Weather by CustomWeather, © 2014

See weather overview